Regional Weather Roundup
Issued by NWS

Home | Current Version | Previous Version | Graphics & Text | Print | Product List | Glossary On
Versions: 1 2 3 4 5 6 7 8 9 10 11 12 13 14 15 16 17 18 19 20 21 22 23 24 25 26 27
000
ASUS45 KBOI 230410
RWRID

IDAHO REGIONAL WEATHER ROUNDUP
NATIONAL WEATHER SERVICE BOISE ID
1000 PM MDT MON AUG 22 2016

NOTE: "FAIR" INDICATES FEW OR NO CLOUDS BELOW 12000 FEET
WITH NO SIGNIFICANT WEATHER AND/OR OBSTRUCTIONS TO VISIBILITY

IDZ012-014-230500-
SOUTHWEST IDAHO


CITY           SKY/WX    TMP DP  RH WIND       PRES   REMARKS
BOISE          PTCLDY    73  27  18 N7        29.90R
CALDWELL       PTCLDY    68  44  42 W8        29.89R
MOUNTAIN HOME  CLEAR     72  28  19 NW9       29.90R
$$

IDZ016-017-230500-
SOUTHCENTRAL IDAHO


CITY           SKY/WX    TMP DP  RH WIND       PRES   REMARKS
BURLEY         MOCLDY    63  32  31 S10       29.96R
JEROME         PTCLDY    64  34  32 SE3       29.97R
TWIN FALLS     MOCLDY    62  30  29 S9        29.98R
$$

IDZ019>023-230500-
SOUTHEAST IDAHO


CITY           SKY/WX    TMP DP  RH WIND       PRES   REMARKS
IDAHO FALLS    CLOUDY    68  20  16 S20G28    29.92R
POCATELLO      CLEAR     70  12  10 S15       29.97R
REXBURG        CLEAR     67  19  16 S10       29.92R
$$

IDZ006-010-011-018-031-032-230500-
CENTRAL IDAHO MOUNTAINS


CITY           SKY/WX    TMP DP  RH WIND       PRES   REMARKS
MCCALL         PTCLDY    62  21  20 N7        30.05R
HAILEY         CLEAR     66  19  16 W7        30.03R
STANLEY          N/A     53  11  18 CALM      30.12R
SALMON         CLEAR     66  27  22 N10       29.93R
CHALLIS        PTCLDY    66   6   9 SW10      29.99R
$$

IDZ002-004-006-007-026-230500-
NORTHERN IDAHO


CITY           SKY/WX    TMP DP  RH WIND       PRES   REMARKS
LEWISTON       CLEAR     70  34  26 S3        29.97R
LOWELL           N/A     59  43  55 CALM      30.00R
COEUR D`ALENE  MOCLDY    63   7  11 CALM      29.95R
MULLAN PASS    CLEAR     48  28  46 SW7       30.08R
$$




USA.gov is the U.S. government's official web portal to all federal, state and local government web resources and services.